This is the latest recevied weather packets stored in our database for station/object KA1AL. If no packets are shown the sender has not sent any weather packets the latest 10 day(s).
| Time | Temp. | Humidity | Pressure | Rain* | Wind** | Luminosity | Snow |
|---|---|---|---|---|---|---|---|
| 1777516484 | 5.56° C | 99% | 1014 hPa | 1.27 mm | - | 0 W/m² | - |
| 1777516179 | 5.56° C | 99% | 1014 hPa | 1.78 mm | - | 0 W/m² | - |
| 1777515877 | 5.56° C | 99% | 1014.1 hPa | 1.78 mm | - | 0 W/m² | - |
| 1777515573 | 5.56° C | 99% | 1014.1 hPa | 1.27 mm | - | 0 W/m² | - |
| 1777515270 | 5.56° C | 99% | 1014 hPa | 1.27 mm | - | 0 W/m² | - |
| 1777514966 | 5.56° C | 99% | 1014 hPa | 0 mm | - | 0 W/m² | - |
| 1777514663 | 5.56° C | 99% | 1014 hPa | 1.78 mm | - | 0 W/m² | - |
| 1777514360 | 5.56° C | 99% | 1014.2 hPa | 1.78 mm | - | 0 W/m² | - |
| 1777514056 | 5.56° C | 99% | 1014 hPa | 0 mm | - | 0 W/m² | - |
| 1777513754 | 5.56° C | 99% | 1014.3 hPa | 0 mm | - | 0 W/m² | - |
| 1777513451 | 5.56° C | 99% | 1014.2 hPa | 1.27 mm | - | 0 W/m² | - |
| 1777513148 | 5.56° C | 99% | 1013.9 hPa | 1.27 mm | - | 0 W/m² | - |
| 1777512843 | 6.11° C | 99% | 1014.1 hPa | 0 mm | - | 0 W/m² | - |
| 1777512540 | 6.11° C | 99% | 1014 hPa | 1.78 mm | - | 0 W/m² | - |
| 1777512236 | 6.11° C | 99% | 1014.1 hPa | 1.78 mm | - | 0 W/m² | - |
| 1777511934 | 6.11° C | 99% | 1014 hPa | 1.78 mm | - | 0 W/m² | - |
| 1777511631 | 6.11° C | 99% | 1013.7 hPa | 1.78 mm | - | 0 W/m² | - |
| 1777511330 | 6.11° C | 99% | 1014.2 hPa | 1.78 mm | - | 0 W/m² | - |
| 1777511025 | 6.11° C | 99% | 1014.1 hPa | 0 mm | - | 0 W/m² | - |
| 1777510722 | 6.11° C | 99% | 1014 hPa | 0 mm | - | 0 W/m² | - |
| 1777510418 | 6.11° C | 99% | 1014 hPa | 0 mm | - | 0 W/m² | - |
| 1777510114 | 6.11° C | 99% | 1014.4 hPa | 1.27 mm | - | 0 W/m² | - |
| 1777509811 | 6.11° C | 99% | 1014.3 hPa | 1.27 mm | - | 0 W/m² | - |
| 1777509506 | 6.11° C | 99% | 1014.4 hPa | 0 mm | - | 0 W/m² | - |
| 1777509204 | 6.11° C | 99% | 1014.2 hPa | 0 mm | - | 0 W/m² | - |
* Rain latest hour (hover to see other rain measurements)
** Current wind speed in m/s (hover to see current wind gust speed)